Location: Austin
(30.3000°N, 97.7500°W)
Time: 11:14:39
(UTC-05:00)

Helios 1B rocket - Pass Details

Date: 05 September 2024
Orbit: 526 x 537 km, 98.2° (Epoch: 11 September)

Event Time Altitude Azimuth Distance (km) Brightness Sun altitude
Rises 20:23:58 0° 174° (S) 2,673 5.6 -8.5°
Reaches altitude 10° 20:26:06 10° 178° (S) 1,785 4.8 -8.9°
Maximum altitude 20:29:54 60° 259° (W) 616 2.9 -9.7°
Drops below altitude 10° 20:33:43 10° 340° (NNW) 1,790 5.4 -10.5°
Sets 20:35:51 0° 344° (NNW) 2,682 6.3 -11.0°
